Weather in Starotsurukhaytuy

Russia / Zabaykalsky Krai     50°11′52″N   119°19′36″E
temp.,
°C
wind,
m/s
gust,
m/s
humid.,
%
clouds,
%
prec.,
mm/h
press.,
hPa
HPBL,
m
6 march, sat
sat600:00−27ssw23840 0.0 104520
03:00−29ssw23830 0.0 104419
06:00−29s22840 0.0 104319
09:00−27se228917 0.0 104127
12:00−20sse359397 0.0 1036333
15:00−16sse478999 0.0 1030486
18:00−16se2390100 0.0 102842
21:00−18ese009297 0.0 102720
7 march, sun
sun700:00−21nw12960 0.0 102720
03:00−21sw22940 0.0 102920
06:00−22wsw11950 0.0 102920
09:00−21ne01940 0.0 102920
12:00−16ese00870 0.0 1028150
15:00−13se11845 0.0 1027186
18:00−15ese229017 0.0 102720
21:00−17e12899 0.0 102920
8 march, mon
mon800:00−18ese12860 0.0 102820
03:00−17se22920 0.0 102720
06:00−18sse22960 0.0 102621
09:00−15sse239538 0.0 102486
12:00−10ssw4693100 0.0 1021347
15:00−6sw5790100 0.0 1019443
18:00−8sw349149 0.0 101873
21:00−10sw348657 0.0 101952
9 march, tue
tue900:00−7w6148354 0.0 1019332
03:00−9wnw6147346 0.0 1021338
06:00−13wnw510770 0.0 1026151
09:00−14nw36750 0.0 103098
12:00−9w36730 0.0 1031257
15:00−7w23720 0.0 1030304
18:00−11ssw11790 0.0 103021
21:00−14s337915 0.0 103121
10 march, wed
wed1000:00−14sse237797 0.0 103040
03:00−14sse338499 0.0 102745
06:00−13sse2384100 0.0 102559
09:00−13ssw1284100 0.0 102425
12:00−9wnw22800 0.0 1023250
15:00−6ssw12830 0.0 1024197
18:00−7ssw22880 0.0 102621
21:00−11ssw11880 0.0 102921